Hourly Data Report for August 07, 2015

All times are specified in Local Standard Time (LST). Add 1 hour to adjust for Daylight Saving Time where and when it is observed.

TORONTO INTL A
ONTARIO

43°40'36.000" N
79°37'50.000" W
173.40 m
6158731
71624
YYZ

Download Data

Hourly Data (August 2015)
Hourly Data Report for August 7, 2015
Temp Definition
°C
Dew Point Temp Definition
°C
Rel Hum Definition
%
Wind Dir Definition
10's deg

Wind Spd Definition
km/h
Visibility Definition
km
Stn Press Definition
kPa
Hmdx Definition


Wind Chill Definition


Weather Definition


TIME
00:00 Legend Double Dagger 16.6 11.8 73 1 9 24.1 99.44     LegendNANA
01:00 Legend Double Dagger 16.3 11.3 72 34 9 24.1 99.44     Clear
02:00 Legend Double Dagger 15.1 11.3 78 32 14 24.1 99.41     LegendNANA
03:00 Legend Double Dagger 15.0 11.2 78 33 12 24.1 99.42     LegendNANA
04:00 Legend Double Dagger 14.6 11.0 79 33 12 24.1 99.42     Clear
05:00
06:00 Legend Double Dagger 15.1 11.7 80 1 16 24.1 99.47     LegendNANA
07:00 Legend Double Dagger 17.3 12.3 72 1 12 24.1 99.50     Mainly Clear
08:00
09:00 Legend Double Dagger 21.0 13.3 61 4 6 24.1 99.50     LegendNANA
10:00 Legend Double Dagger 22.4 12.8 54 9 12 24.1 99.49 25   Mainly Clear
11:00 Legend Double Dagger 23.5 13.2 52 11 8 24.1 99.47 26   LegendNANA
12:00 Legend Double Dagger 23.7 13.4 52 14 14 24.1 99.48 27   LegendNANA
13:00 Legend Double Dagger 24.1 11.6 45 14 14 24.1 99.46 26   Mainly Clear
14:00 Legend Double Dagger 23.8 11.3 45 15 17 24.1 99.47 26   LegendNANA
15:00 Legend Double Dagger 24.3 10.8 42 11 17 24.1 99.46 26   LegendNANA
16:00 Legend Double Dagger 24.5 11.6 44 12 16 24.1 99.44 27   Mainly Clear
17:00 Legend Double Dagger 23.6 10.8 44 13 12 24.1 99.45 25   LegendNANA
18:00 Legend Double Dagger 22.9 9.8 43 14 12 24.1 99.42     LegendNANA
19:00 Legend Double Dagger 21.8 10.1 47 11 10 24.1 99.41     Mainly Clear
20:00 Legend Double Dagger 20.6 11.1 54 13 7 24.1 99.44     LegendNANA
21:00 Legend Double Dagger 20.0 10.0 52 8 10 24.1 99.46     LegendNANA
22:00 Legend Double Dagger 19.6 10.7 56 9 7 24.1 99.49     Mostly Cloudy
23:00 Legend Double Dagger 18.3 11.0 62 5 6 24.1 99.51     LegendNANA

Notes on Data Quality.

Legend

  • E = Estimated
  • M = Missing
  • NA = Not Available
  • ‡ = Partner data that is not subject to review by the National Climate Archives
Date modified: